Flag for Brazil Weather past 2 weeks in Belém, Pará, Brazil

Now
77 °F

Partly sunny.


Feels Like: 78 °F
Forecast: 75 / 86 °F
Wind: 5 mph from East

Location: Belem Aeroporto

Current Time: May 25, 2015 at 5:13:04 PM

Latest Report: May 25, 2015 at 4:00 PM


Visibility: N/A

Pressure: 29.83 "Hg

Humidity: 89%

Dew point: 73 °F

Location of BelémLocation

Historic Weather in Belém — Graph

°F

Belém temperature yesterday

Maximum temperature yesterday: 90 °F (at 3:00 PM)
Minimum temperature yesterday: 77 °F (at 3:00 AM)
Average temperature yesterday: 81 °F

Past Weeks' High & Low Weather Summary

 TemperatureHumidityPressure
High90 °F (May 11, 1:00 PM)100% (May 11, 5:00 PM)29.98 "Hg (May 11, 5:00 PM)
Low39 °F (May 14, 4:00 PM)52% (May 22, 2:00 PM)29.80 "Hg (May 10, 4:00 PM)
Average80 °F84%29.89 "Hg
* Reported May 10 4:00 PM — May 25 4:00 PM, Belém, Weather by CustomWeather, © 2015

Note: Actual official high and low records may vary slightly from our data, if they occured in-between our weather recording intervals... More about our weather records

Advertising

Belém weather history for previous 24 hours

 ConditionsComfort  
Time TempWeatherWind HumidityBarometerVisibility
4:00 PM
Mon, May 25
77 °FPartly sunny.5 mph89%29.83 "HgN/A
3:00 PM77 °FLight rain. Partly sunny.5 mph89%N/AN/A
2:00 PM88 °FThunderstorms. Partly sunny.5 mph66%29.80 "HgN/A
1:00 PM88 °FPartly sunny.2 mph70%29.83 "HgN/A
12:00 PM79 °FLight rain. Partly sunny.7 mph84%29.89 "HgN/A
11:00 AM88 °FPartly sunny.7 mph66%29.92 "HgN/A
10:00 AM84 °FPartly sunny.9 mph74%29.92 "HgN/A
9:00 AM84 °FScattered clouds.8 mph79%29.92 "HgN/A
8:00 AM81 °FScattered clouds.6 mph84%29.89 "HgN/A
7:00 AM77 °FBroken clouds.5 mph94%29.89 "HgN/A
6:00 AM77 °FPartly cloudy.6 mph94%29.89 "HgN/A
5:00 AM77 °FPassing clouds.No wind94%29.86 "HgN/A
4:00 AM77 °FPassing clouds.3 mph94%29.92 "HgN/A
3:00 AM77 °FPassing clouds.3 mph94%29.86 "HgN/A
2:00 AM79 °FPassing clouds.2 mph89%29.89 "HgN/A
1:00 AM79 °FPassing clouds.2 mph89%29.89 "HgN/A
12:00 AM79 °FPartly cloudy.3 mph89%29.92 "HgN/A
11:00 PM
Sun, May 24
79 °FPartly cloudy.2 mph89%29.92 "HgN/A
10:00 PM79 °FPartly cloudy.2 mph89%29.92 "HgN/A
9:00 PM79 °FPartly cloudy.2 mph89%29.89 "HgN/A
8:00 PM79 °FLight rain. Partly cloudy.3 mph89%29.89 "HgN/A
7:00 PM79 °FPartly cloudy.6 mph89%29.86 "HgN/A
6:00 PM79 °FBroken clouds.7 mph84%29.83 "HgN/A
5:00 PM81 °FLight rain. Broken clouds.15 mph84%29.83 "HgN/A
Weather by CustomWeather, © 2015

See weather overviewHow to use our weather pages